Orbital Elements
Epoch 2015 Dec. 4.0 TT = JDT 2457360.5
T 2015 Nov. 18.07455 TT MPCW
q 1.4852792 (2000.0) P Q
n 0.15726235 Peri. 308.92022 +0.45659578 -0.85838051
a 3.3992743 Node 112.39488 +0.87432430 +0.38431093
e 0.5630599 Incl. 14.65308 +0.16455188 +0.33983526
P 6.27
From 1250 observations 1997 Jan. 10-2018 May 21, mean residual 0".4.
|